Regional Weather Roundup
Issued by NWS

Home | Current Version | Previous Version | Text Only | Print | Product List | Glossary Off
Versions: 1 2 3 4 5 6 7 8 9 10 11 12 13 14 15 16 17 18 19 20 21 22 23 24 25 26 27 28 29 30 31 32 33 34 35 36 37 38 39 40 41 42 43 44 45 46 47 48 49 50

000
ASUS45 KABQ 311510
RWRNM
NEW MEXICO REGIONAL WEATHER ROUNDUP
NATIONAL WEATHER SERVICE ALBUQUERQUE NM
900 AM MDT WED AUG 31 2016

NOTE: "FAIR" MEANS FEW OR NO CLOUDS BELOW 12,000 FEET AGL WITH NO
       SIGNIFICANT WEATHER OR OBSTRUCTIONS TO VISION.

      THIS PRODUCT IS RELEASED AS TWO VERSIONS.  ONE VERSION NEAR
      THE TOP OF THE HOUR CONTAINING PRELIMINARY DATA FROM ALBUQUERQUE
      AND OTHER STATIONS.  A FINAL VERSION WITH ADDITIONAL DATA IS
      ISSUED ABOUT 10 MINUTES AFTER THE HOUR.

NMZ501-503-504-510>518-311600-
NORTHWEST PLATEAU/NORTHCENTRAL MOUNTAINS

CITY           SKY/WX    TMP DP  RH WIND       PRES   REMARKS
FARMINGTON     FAIR      66  51  58 E9        30.30R
SANTA FE       FAIR      65  52  62 N6        30.36F
TAOS           FAIR      59  46  63 CALM      30.43S
ANGEL FIRE     FAIR      50  46  88 CALM      30.49F

$$
NMZ402-403-502-505>509-311600-
WESTCENTRAL MOUNTAINS/SOUTHWEST MOUNTAINS

CITY           SKY/WX    TMP DP  RH WIND       PRES   REMARKS
GALLUP         FAIR      63  50  62 N5        30.35R
GRANTS         CLOUDY    63  53  71 S9        30.38S
SILVER CITY    CLOUDY    65  59  81 SE6       30.28R

$$
NMZ407-409-411-412-311600-
SOUTHERN DESERTS

CITY           SKY/WX    TMP DP  RH WIND       PRES   REMARKS
DEMING         LGT RAIN  66  64  93 NE6       30.22S FOG
LAS CRUCES     CLOUDY    68  60  76 NE8       30.24R
HOLLOMAN AFB   PTSUNNY   70  62  76 VRB2      30.20R
ALAMOGORDO     FAIR      70  59  68 SW5       30.22R
T OR C         PTSUNNY   69  56  62 N9        30.25R

$$
NMZ519>523-311600-
CENTRAL VALLEYS/CENTRAL HIGHLANDS

CITY           SKY/WX    TMP DP  RH WIND       PRES   REMARKS
ALBUQUERQUE    FAIR      67  56  67 NW8       30.31S
DOUBLE EAGLE   MOSUNNY   64  54  68 N7        30.34S
MORIARTY ARPT  PTSUNNY   62  55  76 CALM      30.38R
CLINES CORNERS PTSUNNY   58  54  86 E7        30.41R
BELEN          PTSUNNY   67  54  63 N5        30.30S
SOCORRO        PTSUNNY   69  55  62 N8        30.28S

$$
NMZ524>526-539-540-311600-
SOUTHCENTRAL MOUNTAINS

CITY           SKY/WX    TMP DP  RH WIND       PRES   REMARKS
RUIDOSO          N/A     57  57 100 CALM      30.39S

$$
NMZ527>531-311600-
NORTHEAST HIGHLANDS/NORTHEAST PLAINS

CITY           SKY/WX    TMP DP  RH WIND       PRES   REMARKS
LAS VEGAS      FAIR      58  51  78 N3        30.40R
RATON          FOG       55  53  93 CALM      30.36S VSB 1/2
CLAYTON        CLOUDY    65  63  93 SW5       30.29

$$
NMZ532>537-311600-
EASTCENTRAL PLAINS

CITY           SKY/WX    TMP DP  RH WIND       PRES   REMARKS
TUCUMCARI      CLOUDY    68  65  90 CALM      30.26R
CANNON AFB     LGT RAIN  64  64 100 E10       30.28R FOG
CLOVIS AIRPORT CLOUDY    63  59  88 E3        30.27S

$$
NMZ028-029-538-311600-
SOUTHEAST PLAINS

CITY           SKY/WX    TMP DP  RH WIND       PRES   REMARKS
ROSWELL        LGT RAIN  67  64  90 N6        30.22R
ARTESIA        HVY RAIN  64  64 100 N8        30.22R
CARLSBAD       CLOUDY    69  66  90 SE7       30.18R
HOBBS          CLOUDY    68  68 100 E10       30.22R


$$



USA.gov is the U.S. government's official web portal to all federal, state and local government web resources and services.